Theta_e
306 306 306 306 305 305 305 305 305 303 304 304 305 305 305 304 305 305 308 313 316 318 316 316 311 307 308 309 310 308 306 304 308 310 308 307 307 307 308 308 307 307 308 308 308 308 309
306 306 306 305 305 305 304 304 304 303 303 303 304 304 304 304 304 304 303 307 313 315 316 316 310 307 308 309 309 309 308 307 307 309 308 307 307 307 306 306 307 307 307 308 308 308 309
305 305 305 305 305 305 305 304 304 304 303 303 303 303 303 303 302 302 303 302 307 314 314 312 308 306 309 309 308 308 306 306 307 307 307 307 306 307 307 307 306 307 308 308 309 309 310
306 305 305 306 305 304 304 303 303 302 302 302 303 302 302 302 301 301 309 308 305 313 313 309 306 306 308 309 308 308 307 307 307 307 306 306 306 307 306 307 307 308 308 309 309 310 310
305 305 305 305 304 304 304 304 303 302 302 302 300 300 301 301 300 298 305 309 307 312 310 306 307 307 310 309 308 309 308 308 307 307 307 307 307 307 307 308 309 309 309 310 311 311 311
306 306 305 305 304 304 303 303 302 302 302 300 299 300 300 301 300 297 301 308 311 311 308 307 309 309 308 309 308 308 308 307 307 306 307 307 306 307 308 309 310 311 312 312 313 313 312
308 307 306 306 305 304 303 302 302 301 301 300 299 299 299 300 301 296 298 302 307 306 308 309 309 309 309 309 308 308 307 307 307 306 307 307 308 308 308 309 309 309 312 312 313 314 314
310 310 309 308 305 304 302 302 301 300 300 299 299 299 299 299 300 298 302 301 303 304 308 309 310 308 309 308 309 308 307 308 308 308 308 310 312 309 310 312 313 313 314 312 314 315 316
309 309 311 310 306 302 300 299 300 299 299 298 298 298 299 298 297 302 301 301 304 304 307 309 309 309 308 308 308 309 308 309 309 310 309 311 311 312 312 312 313 314 313 313 316 316 316
309 310 309 309 302 300 298 299 299 299 298 298 298 299 299 298 299 301 302 302 303 304 309 309 309 308 309 308 309 309 308 309 308 309 309 310 310 312 314 313 313 316 315 315 315 318 320
310 309 308 301 300 298 297 300 299 299 299 299 299 298 298 298 297 300 300 301 302 303 314 309 308 308 308 310 310 310 310 309 310 311 312 314 314 314 314 314 315 316 317 316 317 319 316
306 304 303 300 298 298 299 299 299 299 299 299 299 298 298 299 300 299 301 301 304 309 314 311 309 310 309 310 312 310 310 309 310 312 312 313 313 312 312 312 313 314 316 317 317 318 322
306 304 299 298 299 300 299 300 299 299 299 299 299 299 300 300 300 300 301 303 308 310 310 310 310 310 310 311 312 312 312 312 313 314 315 313 311 308 310 314 315 316 319 321 322 322 323
303 299 297 298 299 299 299 299 299 299 300 300 300 300 300 301 301 300 300 304 310 313 311 310 310 310 313 312 313 312 314 314 310 311 313 318 318 313 314 317 318 316 316 321 322 326 322
302 298 298 298 299 299 299 299 300 300 300 301 300 300 299 300 300 300 301 307 309 311 310 311 311 312 313 312 312 314 313 312 314 310 316 319 318 314 315 315 316 318 319 314 317 320 321
301 293 298 300 299 298 298 299 300 300 301 301 301 299 299 301 300 301 304 309 310 310 310 310 311 312 313 312 314 314 315 314 315 313 312 316 320 315 315 316 317 317 315 318 318 324 323
299 292 298 299 298 297 298 299 300 301 302 301 300 301 300 299 301 303 308 309 310 309 310 310 311 311 312 312 315 315 315 314 313 313 312 313 317 316 316 316 315 316 314 314 314 315 319
298 293 297 298 299 298 299 298 299 301 302 302 301 301 301 303 304 304 310 309 308 308 310 311 311 311 311 312 313 315 315 314 313 313 314 313 316 318 317 314 313 314 314 314 314 315 315
296 294 297 298 297 298 299 299 300 300 302 302 302 302 304 304 309 308 308 307 308 309 310 311 311 310 310 311 313 314 314 313 313 312 312 311 313 316 316 315 314 315 313 314 314 317 314
294 295 296 298 296 299 300 301 300 300 302 303 303 305 304 306 307 308 308 306 309 308 309 311 311 310 311 312 313 315 315 314 313 312 311 311 312 313 313 314 313 314 313 313 314 312 313
293 296 295 295 297 299 301 301 301 300 302 304 304 304 304 306 306 307 307 307 309 309 311 311 312 310 311 311 313 314 314 314 313 313 312 312 312 309 311 312 313 313 313 313 312 312 312
293 296 295 296 298 299 301 302 301 300 302 302 303 305 304 305 305 306 307 307 309 309 311 312 312 312 312 312 312 313 312 312 312 312 313 312 311 313 312 312 312 312 312 313 313 312 312
292 296 295 297 299 300 301 302 301 301 301 302 302 303 304 303 305 307 308 308 309 310 310 311 312 312 312 312 311 311 311 311 311 311 312 312 312 312 313 311 311 312 310 312 313 312 313
292 296 294 297 302 303 302 302 302 302 300 302 302 303 305 305 305 305 306 307 308 310 311 311 310 312 310 310 311 311 311 311 311 309 310 312 312 311 311 312 311 310 308 308 310 312 311
292 296 294 297 301 303 303 303 303 302 302 301 302 304 305 305 304 305 305 307 308 310 311 310 309 309 309 311 312 312 311 311 311 310 309 309 311 311 311 309 309 309 309 309 310 309 308
292 297 294 297 302 304 303 304 303 302 302 302 303 303 304 305 303 301 306 308 308 310 311 310 309 310 312 312 311 312 311 311 311 311 310 310 310 310 311 311 312 310 307 307 307 309 309
292 297 294 299 304 304 305 304 303 303 302 303 302 304 303 304 301 302 304 306 307 308 309 310 310 310 312 311 311 310 309 310 311 311 311 311 310 310 311 311 311 308 308 307 309 309 309
291 297 294 302 303 304 304 303 303 303 303 304 304 303 302 303 302 302 302 303 306 308 309 309 310 311 312 312 311 309 308 309 309 310 311 310 309 309 310 310 308 308 307 309 307 309 309
291 296 294 303 303 304 303 303 303 303 303 302 301 301 300 302 303 303 303 304 304 304 303 309 309 311 310 310 309 308 308 307 308 308 308 309 308 308 309 309 307 307 307 306 307 309 309
Wind_Speed
23 24 23 22 22 22 22 22 22 23 23 22 24 24 25 27 28 25 25 20 13 17 20 13 11 8 4 6 10 10 8 8 6 10 8 9 10 10 11 10 12 12 13 22 24 26 27
23 23 24 25 25 24 24 22 23 24 24 23 24 25 27 29 28 29 23 23 18 14 18 16 10 7 8 6 3 8 8 8 9 9 8 9 9 7 8 8 7 10 20 23 24 26 27
24 23 22 23 22 24 24 24 24 24 25 25 26 27 28 29 30 30 28 24 24 18 20 15 11 5 8 12 5 9 8 8 7 9 9 10 9 8 5 8 8 8 9 17 19 25 23
26 26 25 25 24 26 23 27 25 26 26 24 27 25 29 31 31 30 28 24 23 19 20 11 7 8 7 2 14 11 8 8 7 8 9 10 9 10 13 11 15 13 9 12 10 19 26
28 26 25 25 25 25 25 22 24 23 24 25 27 27 25 29 29 28 29 14 14 21 11 8 10 8 4 9 13 13 10 10 8 6 7 8 7 10 7 4 5 6 8 14 16 18 7
30 29 29 27 26 25 28 26 27 24 23 26 24 25 27 26 28 26 26 12 16 12 12 10 8 6 11 7 11 10 9 9 8 6 4 8 7 6 5 5 7 8 5 10 12 4 10
37 37 35 33 26 26 25 24 29 26 21 25 23 25 26 25 25 23 21 16 4 3 17 8 12 2 10 12 11 8 8 10 8 9 7 16 5 10 11 14 16 15 18 18 17 12 9
50 49 45 41 31 23 19 23 25 26 22 23 23 24 23 25 24 16 10 10 4 6 5 14 9 14 10 9 6 10 11 8 8 8 10 3 10 13 15 11 11 15 19 19 16 15 10
48 49 43 46 21 18 19 20 21 26 22 21 22 23 23 24 24 6 13 15 10 3 3 5 18 15 11 7 5 19 16 8 7 11 8 9 6 3 8 10 12 13 15 17 7 8 8
51 48 52 26 12 17 25 20 23 23 22 22 22 20 22 24 12 13 8 13 18 8 1 7 9 8 13 5 5 11 13 5 5 5 7 9 15 17 7 9 8 12 8 13 15 6 5
47 33 16 11 21 26 18 21 23 24 23 21 19 20 19 16 17 8 14 14 1 1 4 7 10 10 10 8 14 7 8 6 7 5 4 2 7 6 9 13 7 8 13 6 9 7 3
41 44 33 35 28 20 22 25 25 23 22 21 19 17 15 13 7 9 9 9 6 3 2 4 6 6 11 11 7 7 4 4 4 4 6 12 3 2 4 12 12 14 12 9 7 4 3
50 41 34 27 26 25 26 25 25 24 24 22 19 16 14 12 7 6 9 4 2 2 1 6 6 9 11 8 8 7 6 4 3 3 3 2 4 5 5 6 6 6 6 1 3 3 3
45 36 33 30 26 25 25 28 28 26 25 26 26 23 15 12 7 5 4 1 1 5 5 7 8 10 3 10 4 7 2 1 4 3 3 2 1 2 1 2 4 2 4 2 4 3 1
38 33 28 24 24 27 28 28 28 29 31 29 18 14 7 5 9 5 4 1 4 3 5 7 10 5 3 5 1 3 0 3 6 8 2 2 3 4 8 5 2 3 2 4 4 5 2
34 34 27 24 26 29 29 29 30 32 29 22 19 25 18 16 16 9 2 4 4 10 4 2 2 2 5 5 2 3 5 4 2 7 9 3 2 4 4 5 6 4 7 3 2 5 3
36 32 24 23 26 28 30 31 32 33 19 16 19 16 20 19 13 4 2 4 5 13 12 8 7 4 7 6 4 4 5 4 8 4 5 5 3 4 4 4 5 3 4 3 2 2 0
35 31 21 22 25 28 30 32 33 30 21 18 20 5 14 2 0 1 3 4 4 8 9 4 4 9 7 3 4 4 5 7 10 6 3 3 1 0 4 4 2 4 5 5 3 7 4
32 28 20 23 23 25 28 28 30 28 14 16 8 7 3 6 2 2 2 5 3 7 6 6 7 6 3 4 2 4 5 3 10 4 5 6 4 1 2 1 3 4 10 7 1 2 4
31 26 20 22 22 23 25 26 26 24 9 10 4 2 3 3 5 3 4 5 3 4 5 6 2 1 1 5 4 3 3 3 5 4 6 3 5 5 3 2 3 4 9 10 4 5 8
28 23 23 20 20 21 23 25 24 20 10 7 4 2 1 2 6 6 6 2 4 7 4 7 0 6 5 2 5 3 3 4 4 3 1 4 3 4 5 3 3 4 6 10 11 7 6
26 22 20 21 17 19 20 23 24 16 11 10 3 2 4 4 5 3 3 3 4 4 6 5 6 6 12 9 6 4 5 6 5 5 3 4 1 1 3 6 5 7 9 8 8 8 9
23 23 17 18 18 16 17 19 20 12 9 7 7 5 2 4 3 4 3 1 2 3 5 7 8 5 8 6 10 7 9 9 5 6 5 4 1 3 2 4 4 3 6 7 4 8 2
23 21 18 16 16 18 16 15 13 10 6 5 5 4 4 2 2 3 3 3 6 7 4 11 13 5 7 11 5 5 10 11 11 8 10 3 3 2 2 2 3 3 2 3 4 6 7
21 20 18 16 17 18 17 16 10 5 2 1 3 4 4 2 3 2 3 3 4 6 4 7 6 6 9 7 2 2 3 3 5 6 7 6 3 2 2 1 4 4 1 1 1 3 5
19 17 17 17 18 20 20 12 7 1 3 4 1 3 3 3 3 5 4 4 2 1 2 3 2 10 9 2 2 3 4 3 3 2 1 4 3 2 3 1 2 2 3 1 3 1 3
17 17 14 14 16 18 16 8 5 6 6 6 2 2 3 4 2 2 3 4 2 3 1 2 3 6 7 3 2 2 1 1 2 4 4 2 2 2 1 2 1 3 2 2 1 3 3
14 13 12 10 13 17 13 9 9 9 10 7 3 4 2 3 2 1 1 2 4 6 1 3 0 2 2 2 2 1 2 1 2 2 1 2 0 3 0 1 4 2 2 1 4 4 6
14 11 8 6 9 13 10 8 9 12 8 7 10 8 2 1 3 3 4 4 5 5 4 2 1 2 5 1 1 1 2 1 1 2 1 2 2 1 1 2 1 2 4 5 5 6 3
Wind_Direction
339 340 339 338 337 337 336 336 336 335 332 332 329 329 329 326 332 327 299 276 253 245 230 251 250 262 192 215 240 212 226 227 217 179 190 215 232 245 242 249 263 281 265 273 277 275 281
335 332 332 332 334 333 338 331 332 336 336 335 329 327 327 331 325 325 314 290 262 279 239 247 228 222 173 230 171 205 229 203 190 198 207 217 236 266 305 287 281 287 288 286 292 284 279
328 328 327 327 330 325 328 325 324 327 330 330 326 323 325 327 327 324 319 285 268 259 224 215 219 195 225 224 187 192 184 186 202 212 223 235 246 245 275 289 276 306 312 291 269 265 260
327 327 328 325 321 332 321 325 328 331 326 328 325 324 322 326 325 325 334 301 257 227 207 209 192 177 238 285 207 225 198 207 219 222 236 232 239 252 258 266 288 284 288 276 278 246 248
327 322 323 322 321 323 319 322 321 322 327 320 319 321 323 327 326 326 334 334 206 201 190 157 161 161 254 207 209 200 207 221 218 226 221 223 228 244 240 243 271 205 270 253 276 233 227
322 318 317 316 317 318 319 317 316 317 318 319 324 322 317 322 326 334 329 12 176 202 145 146 142 179 226 211 162 168 188 196 191 186 211 230 221 241 229 221 252 271 237 258 279 260 217
318 315 311 308 306 310 323 328 322 315 315 318 328 328 323 322 326 336 325 337 111 123 164 194 181 198 147 140 158 158 169 151 159 186 202 194 207 225 228 225 242 265 273 284 288 292 232
316 314 309 303 296 304 323 327 324 318 315 322 323 323 323 321 324 336 326 305 281 293 233 222 224 192 153 155 152 168 169 175 196 216 210 180 240 243 243 270 275 275 279 281 287 281 243
323 324 309 306 284 286 355 328 326 323 326 321 322 323 325 319 327 3 344 317 297 261 279 231 205 191 180 194 215 178 179 202 209 240 218 239 253 195 241 268 268 267 266 268 257 287 219
328 326 324 316 274 341 358 338 328 330 329 328 325 320 321 320 340 333 338 340 334 163 228 144 181 210 189 186 224 183 186 208 206 245 242 266 253 257 223 256 243 281 290 247 263 235 248
336 351 345 1 358 358 339 334 335 335 332 325 323 322 321 320 321 338 313 318 271 290 168 127 126 156 179 192 137 170 177 220 254 244 268 228 329 6 275 266 279 255 331 235 274 300 314
356 357 348 347 1 11 353 348 342 338 332 332 328 325 317 331 309 311 325 310 172 241 117 121 127 179 158 209 163 138 157 221 289 298 263 266 309 261 266 318 282 302 291 268 277 267 238
356 356 359 21 13 1 355 343 338 339 342 339 328 318 307 300 295 282 345 140 214 285 235 121 152 161 173 172 175 178 173 180 246 251 209 332 283 312 253 265 228 227 309 240 236 202 37
2 6 6 10 3 357 350 348 351 349 347 337 322 307 292 261 283 319 312 307 322 65 84 115 141 163 199 153 210 196 128 204 191 210 284 275 141 294 272 281 2 52 221 301 314 36 26
3 2 359 2 2 357 357 358 355 353 343 342 4 32 70 144 176 171 62 356 354 44 68 139 151 144 167 155 142 100 117 224 195 194 263 326 43 294 233 299 278 251 248 326 291 283 137
0 1 4 4 2 1 2 358 355 355 7 48 69 66 76 127 143 122 43 320 34 27 272 50 136 262 141 157 88 197 172 65 197 202 230 322 86 353 338 323 225 259 324 322 258 339 50
359 1 8 2 7 5 1 360 1 8 50 64 70 69 86 118 113 50 339 39 15 357 18 8 359 88 111 120 173 199 72 64 4 350 233 308 149 251 245 21 0 335 346 299 243 183 186
358 2 7 5 2 2 3 4 7 11 65 76 62 78 107 63 343 43 5 13 20 321 359 344 303 17 47 64 20 61 69 31 346 316 348 59 18 120 67 142 233 275 334 314 58 331 18
356 0 2 1 360 1 2 7 12 10 52 65 64 87 77 5 28 58 42 77 17 349 341 359 45 30 343 25 51 48 73 11 6 32 16 345 8 330 147 186 326 25 354 346 280 346 339
353 360 360 357 357 3 4 4 12 11 49 79 87 78 2 41 338 8 52 32 359 282 293 299 347 142 91 50 29 125 93 53 349 11 316 280 28 48 96 115 277 5 1 6 60 59 55
351 358 357 357 355 0 4 1 5 10 22 74 43 68 345 37 22 30 70 308 43 356 272 297 199 47 13 70 93 54 95 204 145 317 271 49 81 47 90 45 73 34 26 19 48 55 89
350 351 359 350 345 351 360 357 354 3 13 61 81 44 36 33 347 32 350 16 26 18 343 18 58 47 44 44 1 62 338 17 48 10 36 349 104 52 76 43 52 63 23 38 14 56 87
348 346 355 356 340 345 357 356 355 16 25 51 49 77 23 0 340 307 39 181 296 317 76 31 351 25 63 10 25 56 71 62 48 23 14 28 96 21 43 5 354 29 10 26 59 35 6
341 347 348 355 348 339 341 344 350 6 25 69 55 41 327 67 346 40 337 315 36 5 36 40 16 41 357 322 305 88 81 73 44 20 11 354 73 60 277 345 56 200 56 355 21 62 68
338 343 342 348 344 341 332 324 320 308 354 128 74 66 9 47 359 106 217 219 254 85 45 53 42 41 331 324 272 224 192 202 81 38 5 4 331 38 69 319 138 158 129 6 6 76 15
334 340 341 343 349 342 342 331 303 153 183 167 225 47 38 347 52 311 281 11 111 83 104 61 53 20 13 279 314 357 37 316 18 134 68 316 318 68 355 63 20 118 141 278 315 84 11
330 334 346 350 352 353 359 13 102 97 140 135 129 100 18 310 360 43 343 343 47 278 47 37 351 355 2 333 5 355 82 337 327 346 7 1 331 355 332 344 354 82 73 336 101 213 80
327 330 342 1 360 9 32 77 88 110 112 88 72 300 311 335 292 264 274 327 316 301 256 146 187 235 311 327 332 22 339 108 308 145 301 279 296 206 136 275 281 168 289 23 169 109 127
319 327 337 10 10 27 60 70 111 114 94 73 38 28 127 268 269 254 265 257 257 289 327 302 343 6 15 346 267 286 246 181 2 259 279 296 156 245 342 211 238 199 98 138 129 119 128